When you browse on this site, cookies collect data to enhance your experience and personalize the content and advertising you see.
Visit our Privacy Policy to learn more. By continuing to use the site, you agree to this use of cookies and data.
  • In Denmark
  • List of Countries
  • For 7 days
  • Water Temperature
  • Weather Map
  • Weather Widgets
  • user-avatar
    Login

    Hourly Weather Unieck

    Today, 6 December, Friday

    Time Temperature Precipitation Wind Pressure Humidity
    00:00 -4°C° 0 mm 5 mps 752 mmHg 73%
    01:00 -4°C° 0 mm 5 mps 751 mmHg 76%
    02:00 -4°C° 0 mm 6 mps 751 mmHg 75%
    03:00 -4°C° 0 mm 6 mps 750 mmHg 74%
    04:00 -4°C° 0 mm 6 mps 750 mmHg 73%
    05:00 -4°C° 0 mm 6 mps 749 mmHg 72%
    06:00 -4°C° 0 mm 6 mps 749 mmHg 70%
    07:00 -4°C° 0 mm 6 mps 749 mmHg 69%
    08:00 -3°C° 0 mm 7 mps 748 mmHg 64%
    09:00 -2°C° 0 mm 7 mps 748 mmHg 59%
    10:00 -2°C° 0 mm 8 mps 748 mmHg 55%
    11:00 -1°C° 0 mm 8 mps 748 mmHg 52%
    12:00 0°C° 0 mm 7 mps 748 mmHg 49%
    13:00 +2°C° 0 mm 7 mps 748 mmHg 46%
    14:00 0°C° 0 mm 7 mps 747 mmHg 49%
    15:00 -1°C° 0 mm 6 mps 747 mmHg 51%
    16:00 -1°C° 0 mm 6 mps 746 mmHg 54%
    17:00 -1°C° 0 mm 6 mps 746 mmHg 54%
    18:00 -1°C° 0 mm 6 mps 746 mmHg 54%
    19:00 -1°C° 0 mm 6 mps 746 mmHg 54%
    20:00 -1°C° 0 mm 6 mps 746 mmHg 54%
    21:00 -1°C° 0 mm 6 mps 746 mmHg 54%
    22:00 -1°C° 0 mm 6 mps 745 mmHg 54%
    23:00 -1°C° 0 mm 6 mps 745 mmHg 54%

    Tomorrow, 7 December, Saturday

    Time Temperature Precipitation Wind Pressure Humidity
    00:00 0°C° 0 mm 5 mps 745 mmHg 54%
    01:00 0°C° 0 mm 5 mps 745 mmHg 55%
    02:00 -1°C° 0 mm 5 mps 744 mmHg 56%
    03:00 -1°C° 0 mm 5 mps 743 mmHg 58%
    04:00 -2°C° 0 mm 6 mps 743 mmHg 60%
    05:00 -1°C° 0 mm 6 mps 743 mmHg 61%
    06:00 -1°C° 0 mm 6 mps 742 mmHg 61%
    07:00 +1°C° 0 mm 6 mps 742 mmHg 62%
    08:00 +1°C° 0.1 mm 6 mps 742 mmHg 69%
    09:00 0°C° 0.1 mm 7 mps 742 mmHg 76%
    10:00 +2°C° 0.1 mm 7 mps 742 mmHg 83%
    11:00 +2°C° 0 mm 7 mps 742 mmHg 82%
    12:00 +3°C° 0 mm 7 mps 741 mmHg 81%
    13:00 +4°C° 0 mm 7 mps 741 mmHg 81%
    14:00 +4°C° 0.2 mm 7 mps 741 mmHg 85%
    15:00 +4°C° 0.2 mm 7 mps 741 mmHg 89%
    16:00 +4°C° 0.2 mm 7 mps 741 mmHg 93%
    17:00 +4°C° 0.5 mm 7 mps 741 mmHg 91%
    18:00 +4°C° 0.5 mm 7 mps 742 mmHg 90%
    19:00 +5°C° 0.5 mm 7 mps 742 mmHg 89%
    20:00 +4°C° 0.1 mm 6 mps 743 mmHg 87%
    21:00 +4°C° 0.1 mm 6 mps 743 mmHg 85%
    22:00 +3°C° 0.1 mm 5 mps 743 mmHg 83%
    23:00 +3°C° 0.1 mm 5 mps 743 mmHg 83%

    Day after tomorrow, 8 December, Sunday

    Time Temperature Precipitation Wind Pressure Humidity
    00:00 +3°C° 0.1 mm 5 mps 744 mmHg 84%
    01:00 +2°C° 0.1 mm 5 mps 744 mmHg 84%
    02:00 +2°C° 0 mm 5 mps 744 mmHg 85%
    03:00 +1°C° 0 mm 5 mps 744 mmHg 87%
    04:00 +1°C° 0 mm 5 mps 744 mmHg 88%
    05:00 +1°C° 0 mm 5 mps 744 mmHg 89%
    06:00 +1°C° 0 mm 5 mps 745 mmHg 90%
    07:00 +2°C° 0 mm 5 mps 745 mmHg 92%
    08:00 +2°C° 0 mm 5 mps 745 mmHg 91%
    09:00 +3°C° 0 mm 6 mps 745 mmHg 90%
    10:00 +4°C° 0 mm 6 mps 744 mmHg 89%
    11:00 +4°C° 0 mm 6 mps 744 mmHg 86%
    12:00 +4°C° 0 mm 6 mps 744 mmHg 83%
    13:00 +4°C° 0 mm 7 mps 743 mmHg 80%
    14:00 +4°C° 0 mm 7 mps 743 mmHg 79%
    15:00 +4°C° 0 mm 7 mps 742 mmHg 77%
    16:00 +4°C° 0 mm 7 mps 741 mmHg 75%
    17:00 +4°C° 0 mm 7 mps 741 mmHg 74%
    18:00 +5°C° 0 mm 7 mps 740 mmHg 73%
    19:00 +5°C° 0 mm 8 mps 740 mmHg 72%
    20:00 +5°C° 0.1 mm 8 mps 739 mmHg 75%
    21:00 +5°C° 0.1 mm 8 mps 739 mmHg 79%
    22:00 +5°C° 0.1 mm 8 mps 738 mmHg 82%
    23:00 +5°C° 0.1 mm 8 mps 738 mmHg 84%

    9 December, Monday

    Time Temperature Precipitation Wind Pressure Humidity
    00:00 +6°C° 0.1 mm 7 mps 738 mmHg 85%
    01:00 +6°C° 0.1 mm 7 mps 738 mmHg 87%
    02:00 +6°C° 0.1 mm 7 mps 738 mmHg 86%
    03:00 +5°C° 0.1 mm 6 mps 737 mmHg 86%
    04:00 +5°C° 0.1 mm 6 mps 737 mmHg 85%
    05:00 +6°C° 0.1 mm 5 mps 737 mmHg 85%
    06:00 +6°C° 0.1 mm 5 mps 737 mmHg 84%
    07:00 +6°C° 0.1 mm 5 mps 737 mmHg 83%
    08:00 +6°C° 0 mm 5 mps 737 mmHg 82%
    09:00 +5°C° 0 mm 6 mps 738 mmHg 80%
    10:00 +5°C° 0 mm 6 mps 738 mmHg 79%
    11:00 +5°C° 0 mm 6 mps 738 mmHg 76%
    12:00 +6°C° 0 mm 5 mps 738 mmHg 73%
    13:00 +6°C° 0 mm 5 mps 738 mmHg 70%
    14:00 +6°C° 0 mm 4 mps 738 mmHg 74%
    15:00 +5°C° 0 mm 3 mps 738 mmHg 79%
    16:00 +5°C° 0 mm 2 mps 738 mmHg 83%
    17:00 +4°C° 0 mm 3 mps 738 mmHg 84%
    18:00 +3°C° 0 mm 3 mps 738 mmHg 85%
    19:00 +3°C° 0 mm 3 mps 738 mmHg 86%
    20:00 +3°C° 0 mm 4 mps 738 mmHg 85%
    21:00 +3°C° 0 mm 4 mps 738 mmHg 84%
    22:00 +3°C° 0 mm 4 mps 738 mmHg 83%
    23:00 +3°C° 0 mm 4 mps 738 mmHg 84%

    10 December, Tuesday

    Time Temperature Precipitation Wind Pressure Humidity
    00:00 +2°C° 0 mm 3 mps 738 mmHg 85%
    01:00 +2°C° 0 mm 3 mps 738 mmHg 86%
    02:00 +2°C° 0 mm 3 mps 738 mmHg 87%
    03:00 +1°C° 0 mm 3 mps 738 mmHg 88%
    04:00 +1°C° 0 mm 3 mps 738 mmHg 89%
    05:00 +2°C° 0 mm 3 mps 738 mmHg 88%
    06:00 +2°C° 0 mm 3 mps 738 mmHg 87%
    07:00 +1°C° 0 mm 4 mps 738 mmHg 86%
    08:00 +2°C° 0 mm 3 mps 739 mmHg 87%
    09:00 +3°C° 0 mm 3 mps 739 mmHg 88%
    10:00 +4°C° 0 mm 2 mps 740 mmHg 88%
    11:00 +3°C° 0.1 mm 3 mps 740 mmHg 89%
    12:00 +3°C° 0.1 mm 3 mps 740 mmHg 90%
    13:00 +3°C° 0.1 mm 3 mps 741 mmHg 91%
    14:00 +3°C° 0.1 mm 4 mps 742 mmHg 89%
    15:00 +3°C° 0.1 mm 4 mps 742 mmHg 88%
    16:00 +2°C° 0.1 mm 5 mps 743 mmHg 86%
    17:00 +2°C° 0.2 mm 6 mps 744 mmHg 87%
    18:00 +2°C° 0.2 mm 7 mps 745 mmHg 88%
    19:00 0°C° 0.2 mm 8 mps 747 mmHg 89%
    20:00 0°C° 0 mm 7 mps 747 mmHg 87%
    21:00 +1°C° 0 mm 6 mps 748 mmHg 85%
    22:00 +1°C° 0 mm 6 mps 749 mmHg 84%
    23:00 0°C° 0 mm 5 mps 750 mmHg 85%

    11 December, Wednesday

    Time Temperature Precipitation Wind Pressure Humidity
    00:00 -1°C° 0 mm 4 mps 750 mmHg 86%
    01:00 0°C° 0 mm 3 mps 751 mmHg 87%
    02:00 -1°C° 0 mm 3 mps 751 mmHg 87%
    03:00 -1°C° 0 mm 3 mps 752 mmHg 87%
    04:00 -2°C° 0 mm 2 mps 752 mmHg 87%
    05:00 -2°C° 0 mm 2 mps 752 mmHg 85%
    06:00 -2°C° 0 mm 2 mps 752 mmHg 84%
    07:00 0°C° 0 mm 1 mps 752 mmHg 83%
    08:00 -2°C° 0 mm 2 mps 751 mmHg 79%
    09:00 -1°C° 0 mm 3 mps 751 mmHg 76%
    10:00 -1°C° 0 mm 3 mps 751 mmHg 73%
    11:00 -2°C° 0 mm 4 mps 750 mmHg 70%
    12:00 -1°C° 0 mm 5 mps 750 mmHg 67%
    13:00 -1°C° 0 mm 5 mps 749 mmHg 63%
    14:00 -1°C° 0 mm 5 mps 749 mmHg 62%
    15:00 -1°C° 0 mm 5 mps 748 mmHg 60%
    16:00 -2°C° 0 mm 5 mps 748 mmHg 58%
    17:00 -3°C° 0 mm 6 mps 748 mmHg 57%
    18:00 -3°C° 0 mm 6 mps 747 mmHg 56%
    19:00 -3°C° 0 mm 6 mps 747 mmHg 55%
    20:00 -2°C° 0 mm 6 mps 747 mmHg 54%
    21:00 -1°C° 0 mm 5 mps 747 mmHg 53%
    22:00 -1°C° 0 mm 5 mps 746 mmHg 52%
    23:00 -1°C° 0 mm 5 mps 746 mmHg 54%
    Show more